Regional Weather Roundup
Issued by NWS

Home | Current Version | Previous Version | Text Only | Print | Product List | Glossary Off
Versions: 1 2 3 4 5 6 7 8 9 10 11 12 13 14 15 16 17 18 19 20 21 22 23 24 25 26 27 28 29 30 31 32 33 34 35 36 37 38 39 40 41 42 43 44 45 46 47 48 49 50

000
ASUS43 KIND 030709
RWRIN

WEATHER ROUNDUP FOR INDIANA
NATIONAL WEATHER SERVICE INDIANAPOLIS IN
300 AM EDT WED JUN 03 2015

NOTE: "FAIR" INDICATES FEW OR NO CLOUDS BELOW 12,000 FEET WITH NO
SIGNIFICANT WEATHER AND/OR OBSTRUCTIONS TO VISIBILITY.

* - STATION DOES NOT REPORT WEATHER SUCH AS PRECIPITATION OR FOG.

+ - STATION NOT QUALITY CONTROLLED BY THE NATIONAL WEATHER SERVICE.
    USE DATA WITH CAUTION...ESPECIALLY DEWPOINT AND RELATIVE
    HUMIDITY OBSERVATIONS.

INZ001>003-010>013-019-020-030800-
NORTHWEST INDIANA

CITY           SKY/WX    TMP DP  RH WIND       PRES   REMARKS
GARY /AIRPORT/ CLEAR     53  50  89 E3        30.10S
KNOX *+        PTCLDY    54  50  87 E3        30.10S
LA PORTE +     PTCLDY    56  50  81 E3        30.11S
MICHIGAN CITY+ CLEAR     54  50  87 CALM      30.10F
MONTICELLO +   CLEAR     55  53  93 CALM      30.08F
RENSSELAER +   CLEAR     54  54 100 NE3       30.09S
VALPARAISO     CLEAR     52  49  89 E3        30.10F

$$

LMZ046-743>745-030800-
SOUTHERN LAKE MICHIGAN

STATION/POSITION TIME  TEMP    WIND        PRES    WAVE
                       AIR SEA DIR/SP/G            HT
                 (UTC) (F)     (DEG/KT/KT) (MB)    (FT)
BURNS HARBOR     0700          140/  7/ 13 1019.6S
MICHIGAN CITY    0700   57     100/  6/  8   N/A
5NW MICH CITY    0700   57 56  160/  6/  8   N/A     1

$$

INZ004-005-014>016-021>024-030800-
NORTH CENTRAL INDIANA

CITY           SKY/WX    TMP DP  RH WIND       PRES   REMARKS
GOSHEN         CLEAR     48  46  93 NE3       30.11F
LOGANSPORT +   CLEAR     54  48  82 E3        30.10F
PERU/GRISSOM   CLEAR     54  49  84 E6        30.08F
ROCHESTER +    CLEAR     55  48  76 CALM      30.10S
SOUTH BEND     CLEAR     56  46  69 E3        30.12S
WARSAW +       CLEAR     50  46  87 CALM      30.11S

$$

INZ006>009-017-018-025>027-030800-
NORTHEAST INDIANA

CITY           SKY/WX    TMP DP  RH WIND       PRES   REMARKS
ANGOLA *+      CLEAR     46  45  93 CALM      30.11F
AUBURN +       CLEAR     46  43  87 CALM      30.11F
FORT WAYNE     PTCLDY    50  45  83 CALM      30.11F
HUNTINGTON +   CLEAR     49  47  93 CALM      30.10F

$$

INZ028-029-035-036-043>045-051>053-030800-
WEST CENTRAL INDIANA

CITY           SKY/WX    TMP DP  RH WIND       PRES   REMARKS
CRAWFORDSVL +  CLEAR     49  47  93 CALM      30.08S FOG
GREENCASTLE +  CLEAR     50  46  87 CALM      30.09S FOG
LAFAYETTE      CLEAR     50  50 100 E3        30.08S
TERRE HAUTE    CLEAR     54  51  90 E5        30.07F

$$

INZ030>032-037>040-046>048-054>057-064-065-030800-
CENTRAL INDIANA

CITY           SKY/WX    TMP DP  RH WIND       PRES   REMARKS
CP ATTERBURY + CLEAR     46  46 100 CALM      30.08F FOG
FISHERS *+     CLEAR     48  48 100 CALM      30.09S
FRANKFORT +    CLEAR     53  53 100 CALM      30.10F
GREENWOOD *+   CLEAR     52  48  87 CALM      30.08F
INDIANAPOLIS   PTCLDY    55  50  83 CALM      30.07S
-EAGLE CREEK   CLEAR     53  51  93 CALM      30.08S
KOKOMO *+      CLEAR     54  48  82 E5        30.09F
MARION +       CLEAR     51  47  85 E3        30.10F
MT COMFORT *+  MOCLDY    50 N/A N/A CALM      30.09S VSB 1/2
SHELBYVILLE    FOG       51  49  92 NE3       30.07F VSB 1
ZIONSVILLE +   CLEAR     53  50  89 NE5       30.10S FOG

$$

INZ033-034-041-042-049-050-058-059-030800-
EAST CENTRAL INDIANA

CITY           SKY/WX    TMP DP  RH WIND       PRES   REMARKS
MUNCIE         CLEAR     51  49  92 CALM      30.09F FOG

$$

INZ060-061-067>069-081>083-085>088-030800-
SOUTHWEST INDIANA

CITY           SKY/WX    TMP DP  RH WIND       PRES   REMARKS
EVANSVILLE     CLOUDY    59  56  89 CALM      30.07S FOG
HUNTINGBURG *+ CLOUDY    55  54  94 CALM      30.07F
WASHINGTON +   CLOUDY    56  52  88 CALM      30.08S

$$

INZ062-063-066-070>080-084-089>092-030800-
SOUTH CENTRAL AND SOUTHEAST INDIANA

CITY           SKY/WX    TMP DP  RH WIND       PRES   REMARKS
BLOOMINGTON    CLEAR     51  50  96 CALM      30.08S
MADISON *+     CLEAR     55  52  88 CALM      30.08F
NORTH VERNON +   N/A     50  50 100 CALM      30.08F FOG
SEYMOUR +      CLOUDY    59  52  77 SE5       30.07F

$$



USA.gov is the U.S. government's official web portal to all federal, state and local government web resources and services.